CW4610 Weather Reports


time (UTC)temp
C
wind
direction
speed
KPH
gust
KPH
rain 1hr
cm
rain 24hr
cm
rain mn
cm
humidity
%
barometer
mb
20260504150540 13 315 0.0 1.6 0.00 0.00 0.00 77 1010.0
20260504140520 10 338 1.6 4.8 0.00 0.00 0.00 85 1009.8
20260504130519 10 0 3.2 3.2 0.00 0.00 0.00 84 1009.3
20260504110616 11 0 3.2 4.8 0.00 0.00 0.00 79 1009.3
20260504100519 12 23 1.6 3.2 0.00 0.00 0.00 73 1009.3
20260504081519 14 0 1.6 3.2 0.00 0.00 0.00 64 1009.1
20260504080519 14 23 1.6 3.2 0.00 0.00 0.00 64 1009.1
20260504050526 20 0 1.6 3.2 0.00 0.00 0.00 54 1008.7
20260504045536 20 0 6.4 8.0 0.00 0.00 0.00 52 1008.6
20260504044603 21 0 4.8 8.0 0.00 0.00 0.00 51 1008.5
20260504043613 21 23 3.2 4.8 0.00 0.00 0.00 46 1008.5
20260504042519 22 225 3.2 4.8 0.00 0.00 0.00 44 1008.3
20260504041519 23 225 1.6 4.8 0.00 0.00 0.00 40 1008.3
20260504040519 23 0 0.0 1.6 0.00 0.00 0.00 36 1008.3
20260504035520 24 113 0.0 3.2 0.00 0.00 0.00 36 1008.3
20260504034540 25 203 3.2 6.4 0.00 0.00 0.00 36 1008.3
20260504033540 26 68 1.6 6.4 0.00 0.00 0.00 31 1008.3
20260504032519 26 68 6.4 11.3 0.00 0.00 0.00 29 1008.3
20260504031600 26 68 6.4 11.3 0.00 0.00 0.00 28 1008.3
20260504030519 27 68 6.4 11.3 0.00 0.00 0.00 28 1008.3
20260504025520 27 45 4.8 11.3 0.00 0.00 0.00 28 1008.4
20260504024541 27 23 6.4 14.5 0.00 0.00 0.00 28 1008.4
20260504023520 27 23 8.0 11.3 0.00 0.00 0.00 28 1008.4
20260504022519 27 23 6.4 11.3 0.00 0.00 0.00 28 1008.4
20260504021525 27 23 8.0 14.5 0.00 0.00 0.00 27 1008.5
20260504020520 27 23 8.0 12.9 0.00 0.00 0.00 27 1008.5
20260504015531 28 23 6.4 11.3 0.00 0.00 0.00 27 1008.6
20260504014539 28 0 9.7 16.1 0.00 0.00 0.00 25 1008.6
20260504013539 28 45 6.4 14.5 0.00 0.00 0.00 22 1008.6
20260504012548 28 23 11.3 16.1 0.00 0.00 0.00 23 1008.8
20260504011519 28 23 9.7 19.3 0.00 0.00 0.00 22 1008.8
20260504010539 28 23 11.3 19.3 0.00 0.00 0.00 22 1008.8
20260504005520 28 23 11.3 20.9 0.00 0.00 0.00 22 1008.8
20260504004519 28 23 14.5 27.4 0.00 0.00 0.00 22 1009.0
20260504003520 28 23 12.9 20.9 0.00 0.00 0.00 22 1009.0
20260504002519 28 0 12.9 20.9 0.00 0.00 0.00 21 1009.2
20260504001519 29 0 14.5 22.5 0.00 0.00 0.00 21 1009.3
20260504000518 29 23 12.9 29.0 0.00 0.00 0.00 22 1009.3
20260503235600 29 23 12.9 25.7 0.00 0.00 0.00 21 1009.4
20260503234519 29 23 14.5 29.0 0.00 0.00 0.00 20 1009.6
20260503233518 29 23 14.5 22.5 0.00 0.00 0.00 20 1009.6
20260503232519 30 338 12.9 20.9 0.00 0.00 0.00 19 1009.8
20260503231519 30 23 12.9 22.5 0.00 0.00 0.00 19 1009.9
20260503230539 30 23 16.1 25.7 0.00 0.00 0.00 20 1009.9
20260503225519 30 23 11.3 20.9 0.00 0.00 0.00 21 1010.0
20260503224525 30 23 12.9 20.9 0.00 0.00 0.00 21 1010.2
20260503223519 30 23 14.5 20.9 0.00 0.00 0.00 22 1010.3
20260503222519 30 23 12.9 24.1 0.00 0.00 0.00 21 1010.4
20260503221541 30 45 11.3 17.7 0.00 0.00 0.00 22 1010.6
20260503220609 30 0 11.3 19.3 0.00 0.00 0.00 22 1010.6
20260503215518 30 0 9.7 20.9 0.00 0.00 0.00 23 1010.8
20260503214519 30 0 12.9 19.3 0.00 0.00 0.00 25 1010.9
20260503213519 30 0 9.7 17.7 0.00 0.00 0.00 25 1010.9
20260503212523 30 0 12.9 20.9 0.00 0.00 0.00 26 1010.9
20260503211518 30 0 9.7 16.1 0.00 0.00 0.00 27 1011.2
20260503210519 30 315 9.7 14.5 0.00 0.00 0.00 28 1011.2
20260503205539 30 0 9.7 14.5 0.00 0.00 0.00 29 1011.4
20260503204538 29 338 8.0 14.5 0.00 0.00 0.00 27 1011.5
20260503203519 28 0 4.8 9.7 0.00 0.00 0.00 29 1011.5
20260503202526 28 23 9.7 16.1 0.00 0.00 0.00 27 1011.9
20260503201518 28 0 8.0 16.1 0.00 0.00 0.00 32 1012.1
20260503200518 28 0 9.7 16.1 0.00 0.00 0.00 34 1012.2
20260503195532 28 315 6.4 14.5 0.00 0.00 0.00 35 1012.4
20260503194517 28 0 6.4 12.9 0.00 0.00 0.00 33 1012.5
20260503193521 28 225 4.8 9.7 0.00 0.00 0.00 34 1012.5
20260503192519 28 180 4.8 8.0 0.00 0.00 0.00 32 1012.7
20260503191518 27 225 4.8 8.0 0.00 0.00 0.00 32 1012.9
20260503190519 27 225 6.4 8.0 0.00 0.00 0.00 31 1012.9
20260503185518 27 225 4.8 9.7 0.00 0.00 0.00 34 1013.0
20260503184518 26 225 4.8 9.7 0.00 0.00 0.00 39 1013.1
20260503183518 26 225 4.8 8.0 0.00 0.00 0.00 41 1013.2
20260503182539 25 225 3.2 6.4 0.00 0.00 0.00 42 1013.3
20260503181519 25 225 3.2 8.0 0.00 0.00 0.00 43 1013.4
20260503180520 24 315 1.6 4.8 0.00 0.00 0.00 46 1013.4
20260503175520 23 180 3.2 8.0 0.00 0.00 0.00 45 1013.5
20260503174521 23 293 3.2 8.0 0.00 0.00 0.00 48 1013.6
20260503173540 22 315 3.2 6.4 0.00 0.00 0.00 48 1013.7
20260503172555 21 248 1.6 4.8 0.00 0.00 0.00 47 1014.0
20260503171520 20 315 1.6 4.8 0.00 0.00 0.00 50 1014.0
20260503170520 19 45 1.6 4.8 0.00 0.00 0.00 53 1014.0